TimeEST,TemperatureF,Dew PointF,Humidity,Sea Level PressureIn,VisibilityMPH,Wind Direction,Wind SpeedMPH,Gust SpeedMPH,PrecipitationIn,Events,Conditions,WindDirDegrees,DateUTC
12:53 AM,10.0,3.9,76,30.36,10.0,Calm,Calm,-,N/A,,Clear,0,2014-01-30 05:53:00
1:53 AM,10.9,7.0,84,30.36,10.0,Calm,Calm,-,N/A,,Clear,0,2014-01-30 06:53:00
2:53 AM,10.0,7.0,87,30.35,10.0,Calm,Calm,-,N/A,,Clear,0,2014-01-30 07:53:00
3:53 AM,7.0,3.0,84,30.34,10.0,Calm,Calm,-,N/A,,Clear,0,2014-01-30 08:53:00
4:53 AM,9.0,5.0,84,30.35,10.0,Calm,Calm,-,N/A,,Clear,0,2014-01-30 09:53:00
5:53 AM,6.1,1.9,83,30.35,10.0,Calm,Calm,-,N/A,,Clear,0,2014-01-30 10:53:00
6:53 AM,6.1,1.9,83,30.36,10.0,Calm,Calm,-,N/A,,Clear,0,2014-01-30 11:53:00
7:53 AM,7.0,3.0,84,30.37,10.0,Calm,Calm,-,N/A,,Clear,0,2014-01-30 12:53:00
8:53 AM,10.9,8.1,88,30.37,10.0,Calm,Calm,-,N/A,,Clear,0,2014-01-30 13:53:00
9:53 AM,19.9,15.1,81,30.38,10.0,Calm,Calm,-,N/A,,Clear,0,2014-01-30 14:53:00
10:53 AM,30.0,12.0,47,30.37,10.0,East,8.1,-,N/A,,Clear,80,2014-01-30 15:53:00
11:53 AM,32.0,10.0,40,30.36,10.0,SSE,9.2,-,N/A,,Clear,150,2014-01-30 16:53:00
12:53 PM,35.1,9.0,34,30.31,10.0,ENE,5.8,-,N/A,,Clear,60,2014-01-30 17:53:00
1:53 PM,36.0,10.9,36,30.28,10.0,Calm,Calm,-,N/A,,Clear,0,2014-01-30 18:53:00
2:53 PM,37.9,12.0,35,30.24,10.0,Variable,6.9,-,N/A,,Clear,0,2014-01-30 19:53:00
3:53 PM,39.9,10.9,31,30.21,10.0,Variable,5.8,-,N/A,,Clear,0,2014-01-30 20:53:00
4:53 PM,39.9,12.0,32,30.21,10.0,SE,6.9,-,N/A,,Clear,140,2014-01-30 21:53:00
5:53 PM,37.9,14.0,38,30.20,10.0,SSE,6.9,-,N/A,,Clear,150,2014-01-30 22:53:00
6:53 PM,33.1,12.0,42,30.22,10.0,Calm,Calm,-,N/A,,Clear,0,2014-01-30 23:53:00
7:53 PM,28.9,14.0,54,30.23,10.0,NE,3.5,-,N/A,,Clear,40,2014-01-31 00:53:00
8:53 PM,28.0,15.1,58,30.24,10.0,Calm,Calm,-,N/A,,Clear,0,2014-01-31 01:53:00
9:53 PM,26.1,16.0,66,30.24,10.0,Calm,Calm,-,N/A,,Clear,0,2014-01-31 02:53:00
10:53 PM,23.0,17.1,78,30.24,10.0,Calm,Calm,-,N/A,,Clear,0,2014-01-31 03:53:00
11:53 PM,24.1,17.1,75,30.23,10.0,Calm,Calm,-,N/A,,Clear,0,2014-01-31 04:53:00